[[{"header":{"parameterUnit":"m.s-1","parameterCategory":1,"la1":30.2991,"la2":30.254,"lo1":-89.0895,"lo2":-89.0444,"dy":0.0017,"dx":0.0017,"nx":28,"ny":28,"refTime":"2023-10-29T09:00:00:Z","depth":0,"parameterNumber":2,"parameterNumberName":"U-component_of_WINDS"},"data":[0,0,0,0,0,0,0,0,0,0,0,0,0,0,0,0,0,0,0,0,0,0,0,0,0,0,0,0,0,0,0,0,0,0,0,0,0,0,0,0,0,0,0,0,0,0,0,0,0,0,0,0,0,0,0,0,0,0,0.0906,0.0905,0,0.0819,0.0818,0.0817,0.0793,0.0794,0.0794,0.0795,0.0703,0.07,0.0697,0,0,0,0,0,0,0,0,0,0,0,0,0,0.105,0.1048,0.0906,0.0905,0.0904,0.0819,0.0818,0.0816,0.0793,0.0794,0.0794,0.0795,0.0704,0.07,0.0697,0,0,0,0,0,0,0,0,0,0,0,0,0,0.0978,0.1047,0.0906,0.0882,0.0879,0.0819,0.0818,0.0816,0.0793,0.0794,0.0795,0.0795,0.0705,0.07,0.0696,0.0653,0,0,0.0683,0.0681,0,0,0,0,0,0,0,0,0.0982,0.0972,0.0887,0.0883,0.088,0.0818,0.0835,0.0761,0.0793,0.0826,0.0795,0.0796,0.074,0.0733,0.0715,0.0649,0.0645,0.0682,0.0679,0.0678,0.0676,0,0,0,0,0,0,0,0.0987,0.0976,0.0871,0.0885,0.0881,0.0875,0.0865,0.0821,0.0779,0.0823,0.0821,0.0811,0.0738,0.0719,0.0712,0.0643,0.0682,0.0678,0.0676,0.0674,0.0538,0.0537,0,0,0,0,0,0,0.0996,0.098,0.0874,0.0869,0.0934,0.0872,0.0861,0.0837,0.078,0.0772,0.081,0.081,0.0726,0.0717,0.0709,0.0655,0.0678,0.0673,0.0671,0.0539,0.0538,0.0537,0,0,0,0,0,0,0.0999,0.0987,0.0877,0.0924,0.0909,0.0868,0.0841,0.0835,0.0815,0.0771,0.0763,0.0798,0.0726,0.0715,0.0667,0.0651,0.0671,0.0667,0.054,0.0539,0.0538,0.0546,0,0,0,0,0,0,0.1004,0.0988,0.0972,0.0924,0.0907,0.0838,0.084,0.0832,0.0808,0.0807,0.0757,0.0749,0.0726,0.0674,0.0663,0.0646,0.0664,0.0542,0.054,0.0538,0.0547,0.0545,0.0544,0,0,0,0,0,0.1009,0.0977,0.0971,0.0958,0.0886,0.0837,0.0827,0.0802,0.0807,0.079,0.0761,0.0751,0.0655,0.0669,0.0657,0.0638,0.0542,0.054,0.0538,0.0548,0.0546,0.0544,0,0,0,0,0,0,0.1023,0.097,0.0963,0.0915,0.0881,0.0833,0.0811,0.08,0.0763,0.0764,0.0733,0.0722,0.0676,0.0652,0.0669,0.0593,0.0599,0.0594,0.061,0.0608,0.0606,0.0612,0.066,0,0,0,0,0,0.102,0.0986,0.0942,0.0903,0.0887,0.0852,0.083,0.0813,0.0776,0.0762,0.0729,0.0693,0.0655,0.063,0.0593,0.0544,0.0533,0.0525,0.0523,0.0522,0.0518,0.049,0.0486,0.053,0.053,0.053,0,0,0.1015,0.0982,0.0962,0.0905,0.0877,0.0841,0.084,0.0802,0.0775,0.0755,0.0709,0.0684,0.0642,0.0594,0.0571,0.0572,0.0504,0.0519,0.0519,0.0515,0.0488,0.0484,0.048,0.0529,0.0529,0.0529,0,0,0.0986,0.0958,0.0923,0.0895,0.0853,0.083,0.0822,0.0776,0.076,0.0713,0.0697,0.0665,0.06,0.057,0.0547,0.0509,0.0498,0.0498,0.0488,0.0462,0.0458,0.0455,0.0441,0.0436,0.0494,0.0494,0.0494,0,0.0983,0.093,0.0906,0.0869,0.0845,0.0827,0.0791,0.0765,0.0713,0.0696,0.0699,0.0617,0.0587,0.0532,0.0523,0.0505,0.0494,0.0502,0.0461,0.0457,0.0454,0.044,0.0435,0.0494,0.0494,0.0494,0.0494,0,0.0929,0.0893,0.0869,0.082,0.0794,0.0758,0.0727,0.0703,0.069,0.0667,0.0619,0.0583,0.0538,0.0524,0.051,0.0467,0.047,0.0467,0.0471,0.045,0.0437,0.0432,0.0494,0.0494,0.0494,0.0494,0,0,0.0904,0.0844,0.0836,0.0814,0.0767,0.0738,0.0701,0.0659,0.0638,0.0603,0.0571,0.0517,0.0515,0.0489,0.0471,0.0449,0.0421,0.0449,0.0447,0.0444,0.0371,0.0372,0.0367,0.0414,0.0413,0.0412,0.0374,0,0.0869,0.0804,0.0782,0.0727,0.0693,0.0677,0.0645,0.0613,0.0591,0.0558,0.0533,0.0496,0.0496,0.048,0.0457,0.0429,0.0405,0.0432,0.0383,0.0382,0.0393,0.036,0.0361,0.0327,0.0369,0.0368,0.0367,0,0.0819,0.0784,0.0727,0.0685,0.067,0.0642,0.0601,0.0571,0.0534,0.0519,0.0491,0.0476,0.0436,0.0445,0.039,0.0408,0.0388,0.0371,0.0369,0.0363,0.0372,0.0351,0.0315,0.031,0.0359,0.036,0.036,0,0.0806,0.0745,0.0703,0.0685,0.0635,0.0616,0.0594,0.0558,0.0534,0.0499,0.0483,0.0443,0.0421,0.039,0.0365,0.0373,0.0312,0.0318,0.0298,0.0299,0.0285,0.0286,0.0244,0.0274,0.0274,0.0274,0.0274,0,0.0768,0.0733,0.0697,0.067,0.0631,0.0607,0.0568,0.0545,0.0514,0.0483,0.0467,0.0438,0.0406,0.0373,0.0353,0.0311,0.0301,0.0288,0.0282,0.0288,0.029,0.0273,0.0274,0.0272,0.0273,0.0273,0.0273,0,0.0746,0.072,0.0673,0.0631,0.062,0.0592,0.0556,0.053,0.0508,0.0469,0.0459,0.0424,0.0384,0.0356,0.0305,0.0291,0.0246,0.0241,0.0258,0.0255,0.0237,0.0239,0.0181,0.0173,0.0209,0.0209,0.0209,0,0.0723,0.0696,0.0651,0.063,0.0609,0.0574,0.055,0.0526,0.0501,0.0458,0.0437,0.0397,0.0363,0.03,0.027,0.0231,0.0224,0.0207,0.0218,0.0225,0.0223,0.0225,0.0222,0.0205,0.0205,0.0205,0.0204,0,0.0684,0.0673,0.064,0.0602,0.0574,0.0543,0.0512,0.0495,0.0465,0.0438,0.0398,0.0372,0.0321,0.028,0.0239,0.0216,0.0205,0.0202,0.0195,0.02,0.0211,0.0204,0.0253,0.0203,0.0203,0.0203,0.0203,0.0203,0.066,0.0636,0.0601,0.0565,0.0539,0.051,0.0484,0.046,0.0426,0.0383,0.0371,0.0329,0.0293,0.0237,0.0213,0.018,0.0181,0.0171,0.0168,0.0166,0.0166,0.0218,0.0172,0.0172,0.0172,0.0172,0.0172,0,0.062,0.0598,0.0564,0.0522,0.0493,0.0488,0.0453,0.0429,0.0393,0.0361,0.0329,0.0283,0.0245,0.0213,0.0173,0.0152,0.0146,0.0143,0.0143,0.0138,0.0168,0.0177,0.0148,0.0148,0.0148,0.0148,0.0148,0.0148,0.0596,0.0554,0.054,0.0485,0.0463,0.0423,0.0403,0.0377,0.0352,0.0302,0.027,0.025,0.0218,0.0176,0.0141,0.0132,0.0118,0.0115,0.0105,0.0133,0.0136,0.0138,0.0147,0.0112,0.0112,0.0078,0.0078,0.0077]},{"header":{"parameterUnit":"m.s-1","parameterCategory":1,"la1":30.2991,"la2":30.254,"lo1":-89.0895,"lo2":-89.0444,"dy":0.0017,"dx":0.0017,"nx":28,"ny":28,"refTime":"2023-10-29T09:00:00:Z","depth":0,"parameterNumber":3,"parameterNumberName":"V-component_of_WINDS"},"data":[0,0,0,0,0,0,0,0,0,0,0,0,0,0,0,0,0,0,0,0,0,0,0,0,0,0,0,0,0,0,0,0,0,0,0,0,0,0,0,0,0,0,0,0,0,0,0,0,0,0,0,0,0,0,0,0,0,0,-7.5111,-7.5112,0,-7.5194,-7.5195,-7.5195,-7.5126,-7.5123,-7.512,-7.5117,-7.5196,-7.52,-7.5205,0,0,0,0,0,0,0,0,0,0,0,0,0,-7.4886,-7.4891,-7.5111,-7.5112,-7.5113,-7.5193,-7.5195,-7.5196,-7.5126,-7.5123,-7.5119,-7.5116,-7.5194,-7.52,-7.5206,0,0,0,0,0,0,0,0,0,0,0,0,0,-7.4978,-7.4892,-7.511,-7.5088,-7.5087,-7.5193,-7.5195,-7.5196,-7.5127,-7.5123,-7.5118,-7.5114,-7.5192,-7.5199,-7.5206,-7.5337,0,0,-7.5228,-7.5231,0,0,0,0,0,0,0,0,-7.4972,-7.4986,-7.509,-7.509,-7.5089,-7.5145,-7.5144,-7.5243,-7.5128,-7.5112,-7.5117,-7.5112,-7.5182,-7.519,-7.5214,-7.5341,-7.5344,-7.5229,-7.5233,-7.5236,-7.5238,0,0,0,0,0,0,0,-7.4966,-7.4982,-7.5143,-7.5092,-7.5091,-7.5072,-7.508,-7.5162,-7.517,-7.5113,-7.5108,-7.5119,-7.5181,-7.5208,-7.5216,-7.5345,-7.5229,-7.5235,-7.5239,-7.5242,-7.5582,-7.5587,0,0,0,0,0,0,-7.4963,-7.4977,-7.5141,-7.5146,-7.5019,-7.5079,-7.5089,-7.5131,-7.5169,-7.517,-7.5123,-7.5116,-7.5198,-7.5208,-7.5218,-7.5374,-7.5236,-7.5243,-7.5247,-7.5578,-7.5583,-7.5588,0,0,0,0,0,0,-7.4959,-7.4978,-7.5137,-7.506,-7.5079,-7.5088,-7.5136,-7.5135,-7.5162,-7.5176,-7.5177,-7.515,-7.5195,-7.5208,-7.5308,-7.5375,-7.5246,-7.5253,-7.5572,-7.5579,-7.5586,-7.5686,0,0,0,0,0,0,-7.4952,-7.4977,-7.5028,-7.5062,-7.5083,-7.5228,-7.5141,-7.514,-7.5176,-7.5167,-7.5202,-7.5203,-7.5192,-7.5298,-7.5316,-7.5383,-7.5258,-7.5566,-7.5575,-7.5584,-7.5676,-7.5695,-7.5711,0,0,0,0,0,-7.4945,-7.5052,-7.5031,-7.5051,-7.5148,-7.5232,-7.5244,-7.5231,-7.5181,-7.5232,-7.5241,-7.5202,-7.5366,-7.5309,-7.5328,-7.5398,-7.5562,-7.5573,-7.5583,-7.5668,-7.5692,-7.5711,0,0,0,0,0,0,-7.5023,-7.5056,-7.5033,-7.5155,-7.5192,-7.522,-7.5284,-7.5256,-7.5306,-7.5296,-7.5276,-7.5284,-7.539,-7.5404,-7.534,-7.5527,-7.5455,-7.547,-7.5514,-7.5536,-7.5553,-7.5547,-7.5264,0,0,0,0,0,-7.5055,-7.5123,-7.5147,-7.5251,-7.5271,-7.5275,-7.5311,-7.5298,-7.5334,-7.5349,-7.5365,-7.54,-7.5459,-7.5498,-7.5553,-7.5678,-7.5684,-7.5736,-7.5754,-7.5768,-7.5781,-7.5847,-7.5871,-7.5623,-7.5623,-7.5623,0,0,-7.512,-7.5147,-7.519,-7.5268,-7.5295,-7.5364,-7.5288,-7.5364,-7.5414,-7.5359,-7.5456,-7.5469,-7.5506,-7.562,-7.567,-7.5635,-7.5851,-7.5782,-7.5793,-7.5798,-7.5861,-7.5884,-7.5905,-7.5631,-7.5629,-7.5628,0,0,-7.5275,-7.5303,-7.5393,-7.5422,-7.5465,-7.5467,-7.5489,-7.5522,-7.5529,-7.5626,-7.5587,-7.5645,-7.5748,-7.5776,-7.5804,-7.5971,-7.5936,-7.5989,-7.608,-7.6145,-7.6165,-7.6182,-7.6241,-7.6262,-7.6002,-7.6002,-7.6002,0,-7.5351,-7.5455,-7.5442,-7.5522,-7.5557,-7.5513,-7.5604,-7.5632,-7.5689,-7.5713,-7.5673,-7.5802,-7.5823,-7.5943,-7.5984,-7.6008,-7.6031,-7.5984,-7.6163,-7.618,-7.6196,-7.6252,-7.6274,-7.6008,-7.6007,-7.6007,-7.6006,0,-7.5546,-7.5619,-7.5686,-7.5746,-7.5788,-7.5873,-7.5871,-7.5915,-7.5899,-7.5904,-7.6003,-7.6028,-7.6087,-7.6115,-7.6099,-7.6232,-7.6209,-7.6167,-7.6094,-7.6226,-7.6278,-7.6299,-7.6017,-7.6015,-7.6013,-7.6011,0,0,-7.5751,-7.5804,-7.5829,-7.5856,-7.59,-7.5955,-7.6037,-7.6097,-7.6135,-7.6176,-7.6244,-7.6332,-7.6294,-7.6325,-7.6312,-7.6369,-7.6499,-7.632,-7.632,-7.6352,-7.6647,-7.6678,-7.6703,-7.6477,-7.6481,-7.6485,-7.6643,0,-7.5907,-7.6053,-7.6044,-7.618,-7.6246,-7.6206,-7.6277,-7.6311,-7.6319,-7.6374,-7.6381,-7.6444,-7.6389,-7.6408,-7.6463,-7.6472,-7.6558,-7.646,-7.6538,-7.6541,-7.6529,-7.673,-7.6763,-7.6911,-7.6664,-7.6667,-7.6669,0,-7.6109,-7.616,-7.6304,-7.6339,-7.6366,-7.6431,-7.6485,-7.654,-7.6577,-7.6578,-7.6615,-7.6592,-7.6673,-7.6599,-7.6709,-7.6643,-7.6674,-7.6683,-7.6689,-7.6695,-7.6613,-7.6741,-7.6958,-7.6981,-7.6702,-7.6699,-7.6697,0,-7.6244,-7.6348,-7.6448,-7.6472,-7.6515,-7.6561,-7.6581,-7.6614,-7.6651,-7.6698,-7.6722,-7.6777,-7.6807,-7.685,-7.6842,-7.6789,-7.6954,-7.688,-7.6956,-7.6956,-7.6991,-7.6989,-7.7217,-7.7013,-7.7013,-7.7012,-7.7012,0,-7.6419,-7.6508,-7.6509,-7.657,-7.6668,-7.6656,-7.6753,-7.6767,-7.6797,-7.6858,-7.6826,-7.6884,-7.6871,-7.6928,-7.6922,-7.7014,-7.7027,-7.7029,-7.7026,-7.7032,-7.7032,-7.7051,-7.704,-7.7018,-7.7017,-7.7016,-7.7015,0,-7.6586,-7.659,-7.6696,-7.6729,-7.674,-7.681,-7.6838,-7.6894,-7.6899,-7.6978,-7.6995,-7.7003,-7.7068,-7.7065,-7.7138,-7.7134,-7.7247,-7.7233,-7.7236,-7.7232,-7.7308,-7.7301,-7.7555,-7.7588,-7.7364,-7.7366,-7.7368,0,-7.6697,-7.6765,-7.6807,-7.6847,-7.6871,-7.6935,-7.6974,-7.6965,-7.7005,-7.7053,-7.7104,-7.7167,-7.7217,-7.7323,-7.7333,-7.7389,-7.7375,-7.7461,-7.7383,-7.7387,-7.7376,-7.7372,-7.7378,-7.7476,-7.7478,-7.748,-7.7482,0,-7.6894,-7.6893,-7.6951,-7.7011,-7.7058,-7.7104,-7.7145,-7.7179,-7.7174,-7.7222,-7.729,-7.7329,-7.7405,-7.7467,-7.7521,-7.7538,-7.7509,-7.7507,-7.7527,-7.7532,-7.7531,-7.7532,-7.7276,-7.75,-7.7498,-7.7497,-7.7496,-7.7495,-7.7036,-7.7094,-7.7133,-7.7199,-7.723,-7.727,-7.7325,-7.7338,-7.7396,-7.7459,-7.7449,-7.7525,-7.7559,-7.7629,-7.7652,-7.771,-7.7679,-7.7708,-7.7716,-7.7723,-7.7731,-7.7523,-7.7719,-7.7719,-7.7718,-7.7718,-7.7717,0,-7.723,-7.7254,-7.7315,-7.7375,-7.7427,-7.7398,-7.7442,-7.7486,-7.7555,-7.7591,-7.7641,-7.7719,-7.778,-7.7796,-7.7853,-7.7896,-7.7884,-7.7912,-7.7908,-7.7912,-7.7756,-7.7732,-7.7921,-7.7921,-7.7921,-7.7921,-7.7921,-7.7921,-7.7338,-7.7435,-7.7439,-7.7551,-7.7573,-7.765,-7.7678,-7.7714,-7.7742,-7.7832,-7.7883,-7.7894,-7.7922,-7.7981,-7.8035,-7.8038,-7.806,-7.8093,-7.8091,-7.7944,-7.7923,-7.7904,-7.7882,-7.8098,-7.8099,-7.8242,-7.8244,-7.8245]}]]